Location: Chandolas
(44.4033°N, 4.2533°E)
Time: 05:31:25
(UTC+00:00)

Tsikada Rocket - Pass Details

Date: 15 November 2019
Orbit: 958 x 1009 km, 82.9° (Epoch: 09 December)

Event Time Altitude Azimuth Distance (km) Brightness Sun altitude
Rises 05:26:42 0° 353° (N) 3,748 6.9 -12.9°
Reaches altitude 10° 05:29:16 10° 355° (N) 2,791 6.2 -12.5°
Maximum altitude 05:35:41 75° 81° (E) 1,035 4.3 -11.3°
Drops below altitude 10° 05:42:00 10° 167° (SSE) 2,744 6.8 -10.3°
Sets 05:44:30 0° 169° (S) 3,682 7.4 -9.8°
